Powrót do katalogu

STARLINK-34677

AktywnyŁącznośćVLEO
NORAD 65031·PAYLOAD·🇺🇸 United States

Wystrzelony Jul 30, 2025 z Cape Canaveral Space Force Station

Loading…

Następne Przeloty (najbliższe 24 godziny)

TLE

ŚwieżeSource: CelesTrak SupGP

Epoka: Sep 14, 2026, 22:48 UTC

1 65031C 25161S   26257.95048611  .00003836  00000+0  11340-3 0  2574
2 65031  53.1564 133.9511 0001258  80.3643 250.8354 15.34372154    17

Śledź STARLINK-34677 w czasie rzeczywistym z AllMySat

Download on the App Store